Location: Coupvray
(48.8929°N, 2.7967°E)
Time: 07:06:09
(UTC+00:00)

Resurs 1-4 Rocket - Pass Details

Date: 14 July 2020
Orbit: 799 x 814 km, 98.6° (Epoch: 14 August)

Event Time Altitude Azimuth Distance (km) Brightness Sun altitude
Rises 01:21:23 0° 16° (NNE) 3,350 7.1 -16.9°
Reaches altitude 10° 01:23:46 10° 19° (NNE) 2,412 5.9 -16.7°
Maximum altitude 01:29:05 68° 103° (ESE) 873 2.3 -16.4°
Enters shadow 01:32:22 24° 181° (S) 1,637 3.2 -16.2°
